[[{"header":{"parameterUnit":"m.s-1","parameterCategory":1,"la1":30.2991,"la2":30.254,"lo1":-89.0895,"lo2":-89.0444,"dy":0.0017,"dx":0.0017,"nx":28,"ny":28,"refTime":"2023-09-03T21:00:00:Z","depth":0,"parameterNumber":2,"parameterNumberName":"U-component_of_WINDS"},"data":[0,0,0,0,0,0,0,0,0,0,0,0,0,0,0,0,0,0,0,0,0,0,0,0,0,0,0,0,0,0,0,0,0,0,0,0,0,0,0,0,0,0,0,0,0,0,0,0,0,0,0,0,0,0,0,0,0,0,-4.0642,-4.0642,0,-4.0709,-4.071,-4.0711,-4.0712,-4.0711,-4.071,-4.0709,-4.0776,-4.0779,-4.0781,0,0,0,0,0,0,0,0,0,0,0,0,0,-4.0513,-4.0515,-4.0642,-4.0642,-4.0643,-4.0709,-4.071,-4.0711,-4.0712,-4.0711,-4.071,-4.0709,-4.0775,-4.0778,-4.0781,0,0,0,0,0,0,0,0,0,0,0,0,0,-4.0573,-4.0516,-4.0641,-4.0652,-4.0653,-4.0709,-4.071,-4.0711,-4.0712,-4.0711,-4.0709,-4.0708,-4.0774,-4.0778,-4.0782,-4.0831,0,0,-4.0794,-4.0795,0,0,0,0,0,0,0,0,-4.057,-4.0578,-4.0649,-4.0651,-4.0653,-4.0701,-4.0689,-4.0751,-4.0712,-4.069,-4.0709,-4.0708,-4.0752,-4.0758,-4.0773,-4.0834,-4.0837,-4.0794,-4.0796,-4.0798,-4.0799,0,0,0,0,0,0,0,-4.0566,-4.0575,-4.0668,-4.065,-4.0653,-4.0653,-4.066,-4.0701,-4.0727,-4.0691,-4.0692,-4.07,-4.0753,-4.0769,-4.0774,-4.0838,-4.0794,-4.0797,-4.08,-4.0801,-4.0944,-4.0945,0,0,0,0,0,0,-4.0559,-4.0571,-4.0666,-4.067,-4.0607,-4.0656,-4.0664,-4.0687,-4.0727,-4.0731,-4.0701,-4.07,-4.0763,-4.077,-4.0777,-4.0837,-4.0798,-4.0802,-4.0804,-4.0942,-4.0944,-4.0945,0,0,0,0,0,0,-4.0557,-4.0568,-4.0663,-4.0621,-4.0633,-4.066,-4.0685,-4.0689,-4.0705,-4.0734,-4.0738,-4.0713,-4.0762,-4.0771,-4.0818,-4.0839,-4.0803,-4.0807,-4.094,-4.0943,-4.0945,-4.0957,0,0,0,0,0,0,-4.0553,-4.0567,-4.0586,-4.0621,-4.0635,-4.0703,-4.0686,-4.0691,-4.0712,-4.0711,-4.0746,-4.0751,-4.0762,-4.0812,-4.0822,-4.0844,-4.081,-4.0939,-4.0941,-4.0944,-4.0955,-4.096,-4.0964,0,0,0,0,0,-4.0548,-4.0586,-4.0587,-4.0598,-4.066,-4.0705,-4.0712,-4.0725,-4.0714,-4.0733,-4.0751,-4.075,-4.0836,-4.0817,-4.0828,-4.0851,-4.0937,-4.0941,-4.0944,-4.0953,-4.0959,-4.0964,0,0,0,0,0,0,-4.0551,-4.0591,-4.0592,-4.0643,-4.067,-4.0705,-4.0729,-4.0731,-4.0762,-4.076,-4.0774,-4.0782,-4.0828,-4.0845,-4.0823,-4.0901,-4.0885,-4.0891,-4.0888,-4.0894,-4.0898,-4.0893,-4.0813,0,0,0,0,0,-4.0558,-4.0592,-4.0624,-4.0666,-4.068,-4.0702,-4.0722,-4.073,-4.0759,-4.077,-4.0792,-4.082,-4.0853,-4.0875,-4.0907,-4.0958,-4.0966,-4.098,-4.0984,-4.0988,-4.0992,-4.102,-4.1027,-4.0956,-4.0956,-4.0956,0,0,-4.0572,-4.0598,-4.0618,-4.0667,-4.069,-4.0724,-4.0712,-4.0748,-4.0773,-4.0776,-4.0821,-4.0838,-4.087,-4.0919,-4.0942,-4.0934,-4.1013,-4.0992,-4.0994,-4.0997,-4.1024,-4.1031,-4.1037,-4.0959,-4.0958,-4.0958,0,0,-4.0615,-4.0638,-4.0675,-4.0698,-4.0732,-4.0747,-4.0756,-4.0791,-4.0803,-4.0849,-4.0851,-4.0881,-4.0939,-4.0961,-4.098,-4.1034,-4.1033,-4.1044,-4.1065,-4.1093,-4.1098,-4.1103,-4.1122,-4.1128,-4.1048,-4.1048,-4.1048,0,-4.0627,-4.0679,-4.0694,-4.073,-4.0752,-4.0757,-4.0794,-4.0816,-4.0859,-4.0873,-4.0865,-4.0938,-4.0959,-4.1014,-4.1027,-4.1043,-4.1053,-4.1039,-4.1096,-4.1102,-4.1106,-4.1124,-4.1131,-4.1049,-4.1049,-4.1049,-4.1049,0,-4.0692,-4.0728,-4.0754,-4.0796,-4.0821,-4.0858,-4.0878,-4.0902,-4.0908,-4.0924,-4.097,-4.0997,-4.1035,-4.1049,-4.1055,-4.1105,-4.1099,-4.1094,-4.1077,-4.1114,-4.1131,-4.1138,-4.1051,-4.105,-4.105,-4.105,0,0,-4.0737,-4.0788,-4.0797,-4.0816,-4.0856,-4.0884,-4.0921,-4.0959,-4.0978,-4.1009,-4.104,-4.1089,-4.1085,-4.1106,-4.1115,-4.114,-4.118,-4.1131,-4.1132,-4.1138,-4.1235,-4.1238,-4.1246,-4.118,-4.1182,-4.1183,-4.1232,0,-4.0783,-4.0849,-4.0865,-4.0922,-4.0955,-4.0962,-4.0994,-4.1022,-4.1038,-4.1068,-4.1086,-4.1121,-4.1113,-4.1126,-4.115,-4.1169,-4.1199,-4.1166,-4.1209,-4.121,-4.1199,-4.1255,-4.1258,-4.1303,-4.1239,-4.124,-4.1241,0,-4.0845,-4.0877,-4.0938,-4.0973,-4.0988,-4.1017,-4.1053,-4.1083,-4.1114,-4.1124,-4.115,-4.1156,-4.1196,-4.1179,-4.1233,-4.121,-4.1229,-4.1241,-4.1243,-4.1246,-4.1227,-4.1258,-4.1318,-4.1325,-4.1252,-4.1251,-4.125,0,-4.087,-4.0929,-4.0973,-4.0989,-4.1032,-4.1052,-4.1071,-4.1102,-4.1124,-4.1156,-4.117,-4.1206,-4.1225,-4.1253,-4.1269,-4.1256,-4.1322,-4.1307,-4.1331,-4.1331,-4.1343,-4.1342,-4.1406,-4.1358,-4.1357,-4.1357,-4.1357,0,-4.0919,-4.0955,-4.0985,-4.1012,-4.1053,-4.1071,-4.1111,-4.113,-4.1157,-4.1188,-4.1196,-4.1224,-4.1245,-4.1276,-4.129,-4.1332,-4.1341,-4.135,-4.1353,-4.1348,-4.1347,-4.136,-4.1356,-4.1359,-4.1359,-4.1358,-4.1358,0,-4.0953,-4.0974,-4.1023,-4.106,-4.107,-4.1099,-4.113,-4.1157,-4.1174,-4.1213,-4.1223,-4.125,-4.1287,-4.1307,-4.1353,-4.1362,-4.141,-4.1412,-4.1399,-4.14,-4.1423,-4.142,-4.1496,-4.1507,-4.1452,-4.1453,-4.1453,0,-4.0982,-4.1011,-4.1051,-4.1073,-4.1092,-4.1126,-4.1149,-4.1168,-4.1191,-4.123,-4.1252,-4.129,-4.1322,-4.1381,-4.1405,-4.1441,-4.1442,-4.1467,-4.1448,-4.1443,-4.1442,-4.1439,-4.1442,-4.1469,-4.147,-4.147,-4.147,0,-4.1031,-4.1041,-4.1074,-4.1111,-4.1138,-4.1168,-4.1198,-4.1215,-4.1238,-4.1264,-4.1303,-4.1328,-4.1376,-4.1414,-4.1452,-4.1471,-4.1474,-4.1477,-4.1484,-4.1479,-4.147,-4.1475,-4.1407,-4.1474,-4.1474,-4.1474,-4.1473,-4.1473,-4.1063,-4.1089,-4.1122,-4.1159,-4.1183,-4.1211,-4.1238,-4.1259,-4.1292,-4.1333,-4.1342,-4.1383,-4.1415,-4.1466,-4.1487,-4.1519,-4.1514,-4.1524,-4.1527,-4.1529,-4.153,-4.1467,-4.1526,-4.1526,-4.1526,-4.1526,-4.1526,0,-4.1112,-4.1134,-4.1168,-4.1209,-4.1238,-4.1241,-4.1274,-4.1298,-4.1334,-4.1363,-4.1394,-4.1439,-4.1476,-4.1503,-4.1541,-4.1562,-4.1564,-4.1571,-4.1569,-4.1573,-4.1532,-4.1522,-4.1568,-4.1568,-4.1568,-4.1568,-4.1568,-4.1568,-4.1141,-4.1185,-4.1198,-4.1254,-4.1276,-4.1316,-4.1335,-4.1361,-4.1384,-4.1434,-4.1465,-4.1483,-4.1512,-4.1552,-4.1586,-4.1593,-4.1606,-4.1612,-4.1619,-4.158,-4.1576,-4.1571,-4.1561,-4.1615,-4.1615,-4.1657,-4.1657,-4.1657]},{"header":{"parameterUnit":"m.s-1","parameterCategory":1,"la1":30.2991,"la2":30.254,"lo1":-89.0895,"lo2":-89.0444,"dy":0.0017,"dx":0.0017,"nx":28,"ny":28,"refTime":"2023-09-03T21:00:00:Z","depth":0,"parameterNumber":3,"parameterNumberName":"V-component_of_WINDS"},"data":[0,0,0,0,0,0,0,0,0,0,0,0,0,0,0,0,0,0,0,0,0,0,0,0,0,0,0,0,0,0,0,0,0,0,0,0,0,0,0,0,0,0,0,0,0,0,0,0,0,0,0,0,0,0,0,0,0,0,3.1321,3.1322,0,3.134,3.134,3.1341,3.1356,3.1356,3.1356,3.1357,3.1374,3.1374,3.1374,0,0,0,0,0,0,0,0,0,0,0,0,0,3.1298,3.1298,3.1321,3.1322,3.1322,3.134,3.134,3.1341,3.1356,3.1356,3.1357,3.1357,3.1373,3.1374,3.1374,0,0,0,0,0,0,0,0,0,0,0,0,0,3.1311,3.1298,3.1321,3.1332,3.1333,3.134,3.134,3.1341,3.1356,3.1356,3.1357,3.1357,3.1373,3.1374,3.1374,3.1372,0,0,3.1376,3.1376,0,0,0,0,0,0,0,0,3.131,3.1312,3.133,3.1331,3.1332,3.1346,3.1338,3.1351,3.1356,3.1347,3.1357,3.1357,3.1364,3.1365,3.1368,3.1373,3.1373,3.1376,3.1376,3.1376,3.1376,0,0,0,0,0,0,0,3.1309,3.1311,3.1329,3.133,3.1332,3.1335,3.1337,3.1341,3.1354,3.1348,3.1349,3.1351,3.1365,3.1368,3.1369,3.1374,3.1376,3.1376,3.1376,3.1376,3.1378,3.1378,0,0,0,0,0,0,3.1307,3.131,3.1328,3.1329,3.1322,3.1335,3.1338,3.1341,3.1354,3.1356,3.1351,3.1352,3.1367,3.1368,3.1369,3.1368,3.1376,3.1376,3.1377,3.1378,3.1378,3.1378,0,0,0,0,0,0,3.1307,3.1309,3.1327,3.132,3.1323,3.1336,3.1339,3.1342,3.1345,3.1356,3.1359,3.1352,3.1367,3.1369,3.1372,3.1369,3.1377,3.1377,3.1378,3.1378,3.1378,3.1365,0,0,0,0,0,0,3.1306,3.1308,3.1308,3.132,3.1323,3.133,3.1339,3.1342,3.1346,3.1347,3.1358,3.136,3.1367,3.1371,3.1372,3.1369,3.1377,3.1379,3.1378,3.1378,3.1365,3.1364,3.1363,0,0,0,0,0,3.1305,3.1302,3.1308,3.131,3.1323,3.1329,3.1331,3.1341,3.1345,3.1345,3.1353,3.1359,3.1369,3.1371,3.1372,3.137,3.1379,3.1378,3.1378,3.1366,3.1364,3.1363,0,0,0,0,0,0,3.1288,3.1304,3.131,3.1312,3.1319,3.1332,3.1331,3.1339,3.1344,3.1345,3.1356,3.1359,3.136,3.1365,3.1367,3.1369,3.1375,3.1375,3.1365,3.1364,3.1362,3.1361,3.1378,0,0,0,0,0,3.1285,3.1289,3.1303,3.1303,3.1307,3.1318,3.1322,3.1329,3.1337,3.134,3.1347,3.1354,3.1359,3.1362,3.1367,3.1366,3.1369,3.1366,3.1364,3.1363,3.1363,3.1363,3.1362,3.1376,3.1376,3.1376,0,0,3.1277,3.1287,3.1289,3.13,3.1307,3.1311,3.1321,3.1324,3.1328,3.134,3.1343,3.1349,3.1358,3.1359,3.136,3.1364,3.136,3.1362,3.1361,3.1362,3.1363,3.1361,3.136,3.1376,3.1376,3.1376,0,0,3.1266,3.1274,3.1275,3.1282,3.1293,3.1301,3.1301,3.1313,3.1318,3.1322,3.1332,3.1335,3.1343,3.1349,3.1353,3.1346,3.1352,3.1347,3.134,3.134,3.1339,3.1338,3.1336,3.1335,3.1347,3.1347,3.1346,0,3.1256,3.1263,3.1275,3.1278,3.1283,3.1296,3.1297,3.1303,3.1314,3.1317,3.1321,3.1332,3.1338,3.1342,3.134,3.1343,3.1343,3.1345,3.1339,3.1338,3.1337,3.1335,3.1334,3.1346,3.1346,3.1346,3.1346,0,3.1249,3.1254,3.1254,3.1266,3.1271,3.1273,3.1285,3.1288,3.1296,3.1303,3.1307,3.1316,3.1323,3.1325,3.1331,3.1329,3.1331,3.1337,3.1343,3.1335,3.1333,3.1332,3.1345,3.1345,3.1345,3.1345,0,0,3.1227,3.1247,3.1246,3.1252,3.1265,3.1269,3.1272,3.1281,3.1283,3.1291,3.1294,3.1301,3.1307,3.1311,3.1318,3.1319,3.1313,3.1325,3.1325,3.1322,3.1312,3.1308,3.1307,3.1318,3.1318,3.1318,3.1312,0,3.1218,3.1225,3.1237,3.124,3.1245,3.1258,3.126,3.1269,3.1276,3.1281,3.1289,3.1294,3.1301,3.1304,3.1306,3.1314,3.1311,3.1315,3.132,3.1321,3.1318,3.1306,3.1301,3.1294,3.1311,3.1311,3.1311,0,3.1208,3.1216,3.122,3.1234,3.1237,3.1239,3.1248,3.1253,3.1262,3.1268,3.1274,3.1282,3.1286,3.1293,3.1298,3.13,3.1303,3.1308,3.1308,3.1308,3.1315,3.1306,3.1292,3.1291,3.131,3.131,3.131,0,3.1191,3.1203,3.1207,3.1212,3.1228,3.123,3.1237,3.1247,3.1251,3.1259,3.1262,3.127,3.1274,3.128,3.129,3.1294,3.1295,3.1302,3.1299,3.1299,3.1298,3.1298,3.1285,3.13,3.1301,3.1301,3.1301,0,3.1179,3.1181,3.12,3.1203,3.1206,3.1219,3.1221,3.1229,3.1238,3.1242,3.1254,3.1257,3.1271,3.1276,3.1284,3.1288,3.1289,3.1294,3.1296,3.1293,3.1292,3.1294,3.1295,3.13,3.13,3.13,3.13,0,3.1161,3.1173,3.1179,3.1195,3.1199,3.12,3.1214,3.1216,3.1225,3.123,3.1232,3.1246,3.1253,3.1264,3.1273,3.1279,3.1281,3.1284,3.1278,3.1279,3.1276,3.1276,3.1263,3.1263,3.1279,3.1279,3.1279,0,3.1152,3.1154,3.1171,3.1175,3.1182,3.1188,3.1193,3.1207,3.1212,3.1224,3.1225,3.1233,3.124,3.125,3.1261,3.1268,3.1272,3.1267,3.1273,3.127,3.1272,3.1271,3.1272,3.1265,3.1265,3.1265,3.1265,0,3.1136,3.1143,3.115,3.116,3.1167,3.1175,3.1184,3.1186,3.1202,3.1206,3.1214,3.122,3.123,3.1238,3.1247,3.1254,3.1262,3.1263,3.1263,3.1259,3.1255,3.1258,3.1274,3.1263,3.1263,3.1263,3.1263,3.1264,3.1122,3.1125,3.1137,3.1146,3.1154,3.1163,3.1166,3.1177,3.1183,3.1194,3.1201,3.1209,3.1219,3.1233,3.1239,3.1244,3.1248,3.1248,3.1247,3.1247,3.1246,3.1255,3.1246,3.1246,3.1246,3.1246,3.1246,0,3.1106,3.1116,3.1123,3.1136,3.1143,3.1151,3.1162,3.1166,3.1173,3.1183,3.119,3.1199,3.1207,3.1218,3.1227,3.1229,3.1233,3.1231,3.1231,3.1232,3.1242,3.1242,3.1228,3.1228,3.1228,3.1228,3.1228,3.1228,3.1099,3.1104,3.1113,3.1123,3.1132,3.114,3.1145,3.1153,3.1161,3.1171,3.1178,3.1186,3.1197,3.1206,3.1214,3.1217,3.1219,3.1216,3.122,3.1229,3.1231,3.1233,3.1232,3.1217,3.1217,3.121,3.121,3.121]}]]